Portada
METAR-TAF:

METAR-TAF

Aeroports :

Newnan-Coweta County Airport

Newnan, Geòrgia, Estats Units d'Amèrica

latitud: 33-18-44N, longitud: 084-46-13W, altitud: 296 m

Observació

L'informe es va fer fa 15 minuts, a les 14:15 UTC
Vent 6 kt del Nord
Temperatura 27°C
Humitat 66%
Pressió 1019 hPa
Visibilitat: 16.1 km
Cel clar

METAR: KCCO 301415Z AUTO 35006KT 10SM CLR 27/20 A3009 RMK AO2 T02670197

Hora: 10:30 (14:30 UTC)


TAF: manca

Observacions i pronòstics meteorològics de més de 4000 aeroports (METAR i TAF).

Les estacions disponibles són els punts grocs i vermells al mapa.

Posi el ratolí al punt desitjat per veure el nom de l'estació.

Feu clic per veure les observacions i els pronòstics meteorològics.

Per canviar el mapa: feu clic els botons verds amb una creu de color negre per apropar; al botó verd amb un guió per allunyar la imatge; o en les fletxes verdes per a mapes adjacents.


METAR-TAF: